Theta_e
336 329 329 328 313 310 307 311 320 317 317 319 320 318 317 318 315 312 335 344 344 338 344 352 354 353 352 351 349 348 347 346 343 342 341 340 339 338 337 338 338 338 337 338 338 338 338 337 336
326 324 327 325 309 306 310 318 316 320 322 325 324 322 318 316 321 323 330 342 343 338 344 347 355 353 353 351 350 349 348 347 344 343 342 341 341 340 340 340 341 341 340 340 340 341 341 341 340
324 329 323 316 314 310 312 318 321 321 323 319 318 319 318 318 324 326 338 343 343 339 341 347 355 354 353 352 350 350 349 348 345 344 343 343 342 342 343 342 343 343 342 342 342 342 343 342 342
325 326 324 312 312 315 318 320 321 321 321 319 318 316 321 326 326 330 338 343 340 339 341 348 355 354 353 352 352 351 350 348 347 345 343 343 343 345 346 344 345 346 345 343 343 343 344 343 343
329 325 312 309 309 313 318 323 325 320 319 319 318 316 318 325 329 331 337 342 338 339 341 346 355 354 354 353 353 352 352 350 349 346 345 345 347 348 346 346 345 345 345 344 344 344 346 345 344
320 320 308 305 308 313 316 319 320 319 319 319 317 317 319 326 328 330 336 342 341 339 343 348 355 355 353 353 353 352 352 351 350 349 349 349 350 347 346 345 344 344 344 343 343 343 343 342 342
317 314 308 308 308 310 313 319 317 318 318 318 321 316 322 324 330 332 335 340 343 342 342 347 354 355 354 353 353 352 351 351 351 351 350 350 348 346 344 342 339 339 339 339 340 341 342 341 341
318 316 310 311 309 308 314 316 318 318 316 323 321 316 318 326 330 332 335 336 340 343 342 345 352 353 350 350 354 353 352 352 352 352 351 349 346 343 338 338 337 336 335 336 338 339 339 342 341
322 311 308 310 310 312 317 315 319 321 319 320 322 321 325 327 329 330 332 335 335 337 342 344 345 350 350 347 349 353 352 352 352 350 348 344 339 339 340 340 334 334 335 335 335 336 337 338 338
317 311 311 315 316 315 316 316 317 316 317 317 320 324 326 327 327 327 328 329 333 336 337 342 346 348 349 343 349 352 347 348 346 345 343 343 341 341 338 337 334 334 334 335 335 337 337 338 336
317 311 316 316 318 318 316 316 319 316 314 317 318 321 324 325 326 326 328 330 330 334 337 340 347 350 348 344 346 347 345 344 344 344 343 342 340 340 338 337 336 337 336 334 334 335 335 334 335
312 316 317 317 318 317 316 319 316 317 317 321 322 323 323 323 324 326 328 329 329 332 336 341 345 349 351 345 345 345 342 342 340 340 343 341 339 339 339 336 335 336 335 334 335 334 335 336 336
312 315 317 318 318 318 318 316 316 316 320 322 322 322 322 323 324 327 330 331 332 331 336 340 345 349 350 350 345 343 341 338 338 337 341 340 337 338 338 337 335 334 335 334 333 333 335 335 335
313 313 314 316 316 317 314 314 315 316 318 320 320 319 320 320 322 325 328 329 332 334 336 341 345 349 349 350 349 343 341 338 338 336 339 341 339 338 337 336 334 335 336 335 333 332 333 333 334
312 308 311 312 314 312 315 310 311 316 317 317 317 318 319 321 322 324 327 329 333 335 338 340 345 348 350 348 346 342 338 337 335 337 341 341 341 340 340 337 337 337 336 338 336 334 334 332 333
307 308 303 311 312 313 312 305 312 316 315 315 315 316 317 320 321 324 327 330 334 337 337 340 340 345 348 347 343 338 337 335 336 338 339 342 342 341 340 339 338 337 337 336 335 332 330 330 330
305 299 303 305 312 310 307 304 311 316 315 314 315 316 317 319 320 325 327 329 333 337 338 337 340 342 346 345 341 339 339 336 337 338 339 341 341 341 341 340 337 339 336 334 333 330 332 330 329
299 301 302 303 309 307 306 305 311 314 313 313 314 315 316 318 319 323 328 330 331 334 338 337 338 343 344 340 338 335 334 336 337 338 338 340 341 340 338 339 338 338 333 332 330 332 331 330 330
303 303 302 306 309 307 306 306 310 314 312 312 314 315 316 318 323 326 328 329 329 332 334 335 337 341 338 334 331 331 330 333 335 337 340 341 340 340 338 340 337 335 329 328 333 334 329 329 331
301 300 301 305 308 307 306 305 309 311 312 313 314 315 316 319 321 325 327 328 329 331 333 335 337 339 337 334 333 332 331 332 335 337 340 341 340 339 337 336 336 335 330 331 332 332 329 329 334
300 299 300 300 304 307 304 301 305 310 313 314 315 316 318 318 318 324 326 327 330 331 333 335 337 338 337 338 336 336 336 337 332 335 336 338 339 338 337 336 336 336 337 333 333 332 330 327 331
297 302 301 300 299 295 304 295 303 308 309 311 313 315 316 318 322 324 326 327 330 330 333 335 336 337 337 339 335 335 329 327 333 335 338 336 337 335 335 336 335 335 337 335 333 331 331 332 328
299 302 300 300 298 298 299 296 301 306 305 308 312 315 317 319 323 324 326 327 329 330 332 334 337 337 338 337 337 333 333 333 336 334 335 337 337 335 333 335 335 335 335 334 334 332 331 330 331
303 300 300 301 299 292 298 297 298 302 306 309 313 314 316 320 322 325 327 328 328 331 332 334 335 336 337 337 337 336 336 335 332 333 332 335 337 336 335 333 334 336 335 334 333 333 332 333 335
301 298 292 291 292 291 300 298 300 307 310 311 311 314 319 322 323 324 325 325 327 329 331 333 334 334 335 335 335 338 337 336 334 333 333 332 334 335 333 335 336 336 337 336 335 334 334 334 335
298 299 294 287 290 293 301 295 301 308 311 313 313 315 318 321 324 324 325 326 327 329 331 331 332 332 333 333 335 338 338 334 334 334 334 334 334 332 335 335 335 336 335 336 336 336 333 335 336
299 297 303 297 298 295 299 302 307 309 309 313 314 314 318 322 324 324 326 327 328 329 331 332 332 331 331 333 337 337 338 336 334 334 337 333 335 332 334 335 335 336 335 335 336 337 336 334 333
302 304 296 297 291 289 295 298 301 305 307 310 314 316 320 323 323 324 325 327 329 331 332 333 332 330 331 334 335 335 337 336 335 335 333 333 334 333 333 334 335 335 335 336 335 334 334 332 333
299 299 300 301 298 292 292 296 306 307 311 312 315 319 320 322 322 323 325 327 329 330 331 332 329 329 331 332 335 336 336 336 335 335 333 333 334 334 332 332 335 334 334 334 332 331 331 331 332
303 301 301 295 294 297 296 296 310 311 314 315 315 318 321 323 323 324 325 326 327 329 329 329 328 328 330 332 333 335 336 336 335 334 335 333 333 333 332 332 333 333 333 331 329 329 330 330 328
Wind_Speed
12 12 6 6 7 6 10 8 2 7 7 3 3 7 6 9 9 8 5 9 8 18 19 22 22 21 20 18 17 17 16 15 14 13 12 11 10 9 8 7 7 6 6 6 6 6 6 6 6
12 9 6 3 9 10 9 9 11 4 3 7 9 12 10 12 5 6 6 12 11 17 18 22 22 22 21 19 18 16 15 15 14 13 12 11 10 9 9 9 10 9 9 9 9 9 8 8 7
13 8 6 6 9 11 5 7 7 2 5 5 4 4 2 3 1 5 7 14 13 17 17 19 24 22 20 19 17 16 15 14 14 13 12 12 11 11 11 11 12 12 12 12 12 11 11 10 9
9 7 6 10 12 10 9 5 2 5 4 3 4 8 3 4 2 4 2 14 12 16 17 17 23 21 20 19 18 17 16 15 15 14 13 13 13 12 11 12 13 15 15 14 14 14 13 11 10
7 5 11 12 16 12 8 13 12 11 4 7 2 3 5 5 4 3 3 11 12 15 16 17 21 21 20 19 18 17 16 15 14 14 14 14 13 13 13 13 14 15 16 16 15 15 13 11 11
8 6 10 13 15 7 11 11 13 13 8 5 6 5 2 3 5 6 3 10 12 12 14 13 19 20 20 19 18 17 16 15 15 14 13 14 14 14 12 13 12 13 14 13 14 15 13 12 10
14 10 15 15 14 11 8 7 11 11 8 8 6 9 4 4 9 6 3 8 13 12 14 13 16 19 19 18 17 16 15 15 14 13 13 14 13 8 9 9 10 12 13 14 14 14 13 12 11
10 9 18 12 12 13 3 7 6 7 7 4 4 9 7 11 8 7 6 8 13 14 15 15 15 17 18 16 15 15 15 14 13 13 14 11 8 9 10 9 13 10 10 11 12 14 14 13 11
15 12 14 18 19 15 7 11 4 4 11 12 15 14 14 14 11 11 9 10 12 15 16 15 16 15 16 16 15 14 15 13 12 12 12 8 9 10 10 6 5 8 10 11 12 12 12 13 13
16 15 21 19 18 18 17 13 15 11 17 20 19 19 13 13 14 15 14 13 12 17 17 16 15 14 15 12 13 14 13 11 11 11 10 9 9 7 6 8 7 9 12 12 12 11 10 10 10
21 24 21 22 22 20 23 21 20 20 20 23 22 20 19 19 16 17 17 16 15 12 16 17 15 15 16 13 10 8 8 7 7 10 8 8 7 6 6 6 5 6 9 7 9 9 10 11 8
30 30 27 25 26 23 22 25 23 24 20 25 24 22 23 22 19 18 17 16 15 13 16 18 17 16 16 11 10 9 7 7 6 7 9 7 6 7 7 5 6 5 6 6 7 6 6 7 10
36 27 27 23 23 25 22 26 28 28 22 27 22 21 20 19 21 20 16 16 16 16 15 18 18 17 14 13 10 9 9 8 7 7 8 7 7 6 6 6 7 7 7 7 7 7 6 8 9
26 27 30 25 24 23 25 27 29 26 21 28 22 21 20 20 20 18 16 17 14 15 15 15 19 17 17 14 13 9 8 8 7 7 6 8 7 6 7 7 8 8 8 7 7 7 7 7 7
25 28 28 21 23 25 22 28 30 25 23 26 21 19 18 17 18 17 15 16 16 12 13 17 18 19 18 17 14 10 9 8 7 6 7 8 8 9 10 8 8 8 7 9 8 7 8 8 8
21 25 27 24 21 18 17 32 23 18 19 19 17 16 18 18 20 18 17 16 14 13 14 16 16 20 20 16 13 10 8 8 7 6 6 9 10 11 9 7 7 8 7 8 8 8 7 7 7
26 25 29 26 23 23 25 34 28 22 16 13 16 19 18 19 21 19 17 16 15 13 13 16 18 19 19 16 12 10 9 8 6 5 6 8 9 11 9 8 6 7 7 8 9 7 8 8 7
26 25 25 28 20 17 26 32 24 20 21 20 18 19 20 20 23 19 16 12 13 9 10 14 15 17 17 13 10 8 8 8 6 6 7 7 8 10 9 8 9 5 6 9 8 7 7 9 6
23 25 30 25 23 23 26 27 27 23 16 23 22 20 22 22 21 16 8 8 5 7 11 13 15 17 14 12 11 9 9 8 6 5 6 8 8 9 9 6 7 8 8 7 7 7 9 8 7
27 27 30 25 20 22 24 27 28 24 23 23 25 23 22 20 18 13 4 5 6 9 10 14 15 16 13 10 8 7 6 5 4 3 4 6 7 8 8 8 8 9 8 11 9 11 8 6 7
33 31 25 24 19 20 21 27 28 25 27 27 24 21 19 20 20 13 6 5 8 11 13 14 16 17 13 12 8 6 5 3 6 6 5 4 6 6 8 8 8 8 7 7 9 8 10 6 8
31 26 24 22 20 23 20 25 25 22 24 22 23 21 22 17 14 8 7 8 9 11 13 16 16 16 12 12 9 7 4 4 2 2 1 4 5 5 6 6 7 7 6 7 6 6 7 8 7
26 16 20 21 20 22 24 21 18 21 25 22 20 20 18 14 8 8 9 10 12 14 15 16 16 14 13 10 8 8 5 3 3 3 4 5 4 4 5 5 5 6 6 5 6 6 7 7 6
22 13 19 19 16 20 20 21 18 22 24 21 15 12 11 7 6 9 10 13 14 16 17 16 16 13 12 10 8 5 4 2 3 3 4 2 3 4 5 5 5 4 5 5 5 5 6 4 5
23 23 10 13 14 13 16 16 21 21 18 18 17 10 6 7 10 13 15 15 17 18 17 15 15 14 12 10 9 7 5 4 4 5 2 0 3 5 5 4 4 4 5 4 4 6 5 5 4
28 26 12 17 14 12 20 11 14 9 14 16 16 11 3 7 12 14 16 17 18 18 17 16 15 13 12 10 9 6 5 4 3 1 2 2 4 4 5 4 4 3 4 4 4 4 5 5 4
32 29 23 10 6 8 10 12 15 19 16 10 9 12 7 10 13 15 17 17 17 16 16 15 14 12 11 10 8 7 5 3 4 3 2 4 4 5 5 4 3 2 3 4 4 4 5 3 2
30 23 22 13 16 12 8 13 7 1 9 11 9 9 11 13 15 16 16 17 15 15 14 14 12 12 11 10 8 7 6 5 5 4 4 4 5 5 5 3 3 3 5 3 1 1 4 4 3
18 23 23 14 10 12 5 6 6 10 5 9 7 10 15 16 16 17 17 16 16 15 14 13 11 12 11 9 8 7 6 6 5 5 5 5 6 6 5 4 2 3 5 3 3 2 3 5 5
23 20 23 16 19 8 6 3 2 3 1 1 4 11 16 16 17 18 18 17 16 15 15 13 11 11 11 9 8 6 6 5 5 6 6 6 6 6 5 5 2 2 6 3 3 4 3 5 5
Wind_Direction
159 173 180 209 231 235 241 216 331 176 189 140 247 238 253 312 307 337 113 169 161 161 163 174 175 175 175 176 176 177 179 179 181 181 187 193 195 203 210 227 237 246 249 247 246 248 241 247 257
157 170 209 227 254 222 198 205 195 205 27 288 262 244 248 261 293 290 213 172 168 159 171 180 179 181 178 177 180 181 184 184 184 191 197 208 212 221 228 234 242 248 257 259 252 246 245 240 242
165 213 244 229 237 258 266 178 180 128 295 284 236 269 314 258 208 315 54 164 166 168 177 184 178 182 181 179 180 182 187 189 193 199 209 221 232 236 240 247 250 252 259 265 265 259 254 246 235
181 194 228 247 236 241 277 169 136 263 152 240 327 261 191 338 353 359 70 171 175 178 180 176 179 183 183 182 182 186 188 194 200 208 217 230 239 247 250 255 257 256 257 262 262 264 260 257 264
218 246 248 237 252 270 265 275 283 272 256 243 301 281 284 83 357 311 203 190 193 185 186 180 179 185 184 185 186 188 191 199 204 211 223 233 239 244 252 259 263 261 262 265 264 264 261 261 257
211 266 237 243 246 230 274 275 264 259 264 209 232 284 292 107 18 21 221 204 211 197 194 191 181 190 187 187 188 190 192 199 205 213 226 236 244 248 253 258 265 269 271 272 270 270 268 260 279
245 223 253 263 275 279 285 284 263 263 228 224 332 274 293 254 18 347 270 219 216 204 201 198 186 195 191 189 189 190 195 202 208 215 228 243 255 245 250 259 265 272 276 275 273 270 267 264 264
243 251 257 258 271 281 329 258 289 239 272 18 275 273 270 344 342 313 282 251 220 211 206 205 199 193 198 192 192 191 197 205 212 221 231 241 236 241 240 254 240 251 271 274 275 271 268 267 258
240 240 247 253 263 270 251 270 130 315 269 279 289 279 303 308 300 284 275 266 241 220 210 208 201 197 198 198 185 193 199 208 217 227 229 222 242 234 231 223 299 270 264 270 267 267 262 265 258
222 235 248 262 272 266 281 261 281 280 268 275 275 265 265 256 275 280 277 269 238 234 218 210 211 201 197 197 191 201 201 210 217 227 235 223 245 258 303 304 276 262 263 264 263 269 267 262 256
231 247 263 260 262 261 275 272 274 274 274 272 287 303 293 288 283 273 265 274 274 245 221 209 197 196 202 201 189 191 196 207 216 229 231 241 260 249 242 256 248 236 215 260 229 223 227 239 262
243 251 258 264 266 259 258 273 277 272 278 277 286 291 291 289 288 283 267 268 272 252 227 204 198 201 197 200 194 192 194 200 213 215 218 235 237 238 253 266 268 246 255 266 252 258 264 270 257
245 253 269 252 258 267 275 269 272 276 281 277 281 285 280 279 277 276 268 267 268 264 228 209 199 201 194 202 191 196 203 195 216 218 212 235 251 250 257 254 260 263 263 247 249 259 256 265 251
252 259 254 261 256 260 262 265 268 268 274 278 279 280 285 288 283 276 272 265 257 253 237 205 202 197 195 189 190 186 197 200 215 216 223 218 246 244 256 245 244 251 254 254 248 253 268 251 260
257 255 260 240 253 253 261 270 256 265 262 267 274 280 283 285 285 272 271 266 265 250 232 208 199 194 195 189 182 188 188 215 209 215 212 227 234 236 253 259 257 255 251 252 251 241 232 251 243
250 246 249 235 229 240 230 261 262 270 265 267 274 281 289 286 284 283 272 273 259 245 219 204 194 194 190 183 176 185 190 206 207 207 223 226 236 244 249 248 249 252 247 245 249 234 249 241 243
230 239 238 245 243 240 231 254 251 257 257 265 271 283 288 291 288 276 278 272 265 244 221 192 197 191 186 174 168 176 182 213 205 212 232 236 241 242 240 245 242 234 233 236 237 233 235 246 247
228 231 242 259 229 221 237 247 261 261 267 278 278 282 285 291 283 285 279 281 265 235 190 193 191 185 178 161 160 172 180 204 209 222 242 253 243 244 241 238 237 225 244 241 233 234 239 257 263
246 243 245 244 241 245 246 262 269 266 267 268 274 280 280 285 290 283 284 277 224 186 178 191 182 170 171 163 167 174 195 201 212 231 240 248 252 248 238 236 224 208 222 257 220 233 228 235 220
235 241 245 251 249 256 268 265 273 268 265 272 275 274 278 276 286 281 278 223 179 164 173 167 172 165 167 163 173 183 198 198 231 245 243 258 250 239 236 231 229 223 215 226 230 227 231 223 204
223 232 240 252 263 261 258 265 267 265 260 259 264 262 262 264 279 270 205 189 160 157 163 163 160 162 163 152 148 156 149 195 216 203 221 207 237 230 234 236 236 223 221 226 226 226 227 227 202
227 221 243 254 252 253 246 269 266 272 270 264 266 265 264 266 257 234 182 170 162 150 152 153 155 157 153 166 164 175 196 233 80 258 206 231 230 229 230 231 220 217 215 222 222 217 224 218 203
233 228 229 238 250 263 255 261 272 268 265 263 258 254 251 251 254 192 174 157 147 147 148 149 150 156 151 157 164 168 212 154 190 206 209 246 205 214 213 223 211 213 214 214 209 188 213 189 202
215 208 221 233 243 248 252 253 263 260 262 263 262 258 223 179 179 147 140 144 142 144 142 145 147 146 154 160 155 178 149 204 227 218 242 218 198 219 196 198 205 211 220 202 195 187 197 234 220
188 190 194 216 220 247 241 243 253 269 262 256 258 242 149 161 152 148 149 149 149 146 146 146 148 149 156 158 166 168 160 171 209 241 270 199 213 217 144 195 198 219 219 191 185 187 200 216 226
194 185 203 211 223 234 215 241 245 275 265 254 243 226 163 160 145 146 150 148 146 148 150 149 150 153 159 166 170 159 157 175 200 154 332 161 171 186 164 185 205 163 177 162 177 197 206 207 226
188 211 207 248 269 240 181 237 263 262 257 253 227 212 183 158 146 147 146 148 147 150 152 152 152 153 161 168 159 163 156 167 79 90 167 152 145 137 171 185 115 87 105 154 177 196 185 168 201
195 192 201 206 216 216 201 251 248 331 218 214 198 180 163 154 149 148 149 149 149 151 149 154 156 158 162 164 167 167 158 151 124 134 120 139 157 169 164 167 99 117 77 76 23 133 156 165 126
190 198 211 202 236 199 230 225 235 260 186 208 219 154 162 156 153 152 152 151 151 151 152 155 162 162 162 169 163 159 156 146 148 145 141 143 166 166 173 163 134 107 96 88 110 135 154 163 168
200 197 196 196 191 229 220 223 276 224 269 300 158 152 151 154 154 156 152 155 153 154 154 158 165 165 165 167 163 157 158 157 155 154 135 162 165 174 157 162 134 114 74 75 113 129 132 144 114